Regional Weather Roundup
Issued by NWS Newport/Morehead, NC

Current Version | Previous Version | Text Only | Print | Product List | Glossary On
Versions: 1 2 3 4 5 6 7 8 9 10 11 12 13 14 15 16 17 18 19 20 21 22 23 24 25 26 27 28 29 30 31 32 33 34 35 36 37 38 39 40 41 42 43 44 45 46 47 48 49 50
000 ASUS42 KMHX 290613 RWRMHX WEATHER ROUNDUP FOR EASTERN NORTH CAROLINA NATIONAL WEATHER SERVICE NEWPORT/MOREHEAD CITY NC 200 AM EDT SAT AUG 29 2015 NOTE: "FAIR" INDICATES FEW OR NO CLOUDS BELOW 12,000 FEET WITH NO SIGNIFICANT WEATHER AND/OR OBSTRUCTIONS TO VISIBILITY NCZ015>017-031-032-045>047-102-103-290700- NORTH COAST CITY SKY/WX TMP DP RH WIND PRES REMARKS EDENTON FAIR 65 62 91 CALM 30.19S ELIZABETH CITY FAIR 68 63 84 NE6 30.18F KITTY HAWK CLOUDY 75 64 68 E7 30.16F MANTEO CLOUDY 74 65 71 E10 30.18S $$ NCZ045>047-081-094-103-104-290700- CENTRAL COAST CITY SKY/WX TMP DP RH WIND PRES REMARKS FRISCO FAIR 76 68 76 NE10 30.15F SWANQUARTER NOT AVBL $$ NCZ095-097-098-100-101-290700- SOUTHERN COAST CITY SKY/WX TMP DP RH WIND PRES REMARKS BEAUFORT FAIR 72 70 93 NE6 30.14F CEDAR ISLAND NOT AVBL JACKSONVILLE FAIR 69 64 84 N5 30.15F PINEY ISLAND CLOUDY N/A N/A N/A NE13 30.15F WILMINGTON FAIR 69 66 90 NE6 30.15F $$ NCZ011>013-027>030-043-044-078>080-089-090>093-098-290700- COASTAL PLAIN CITY SKY/WX TMP DP RH WIND PRES REMARKS AHOSKIE FAIR 58 56 94 CALM 30.20S CLINTON FAIR 64 63 98 CALM 30.18F ELIZABETHTOWN FAIR 67 63 87 CALM 30.17F GOLDSBORO FAIR 63 62 94 CALM 30.17F GREENVILLE FAIR 63 63 100 CALM 30.20S HAVELOCK FAIR 72 68 87 NE8 30.16F KENANSVILLE N/A 62 61 96 CALM 30.18F KINSTON FAIR 62 61 96 CALM 30.18F NEW BERN FAIR 69 64 84 NE5 30.17F RICHLANDS FAIR 64 57 77 CALM 30.16F ROCKY MOUNT FAIR 61 60 97 CALM 30.20S WASHINGTON FAIR 63 61 93 CALM 30.18F WHITEVILLE FAIR 66 64 94 CALM 30.16F FOG $$ AMZ130-135-150-152-154-156-158-170-250-252-270-ANZ085-086-088-633-658-670-290700- MARINE OBSERVATIONS STATION/POSITION TIME TEMP WIND PRES WAVE SWELL AIR SEA DIR/SP/G HT/PER HT/PER (UTC) (F) (DEG/KT/KT) (MB) (FT/S) (FT/S) CHESAPEAKE LIGHT 0600 76 60/ 9/ 9 1022.8 64 E VA BEACH 0550 77 80 60/ 10/ 12 1021.8 4/10 3/10 DUCK NOT AVBL 2 E DUCK 0511 78 N/A 4/11 2/11 OREGON INLET NOT AVBL 13E OREGON INLT 0600 78 N/A 4/11 2/11 HATTERAS CG NOT AVBL DIAMOND BUOY 0550 76 82 30/ 16/ 17 1020.4 5/11 3/11 CAPE LOOKOUT 0600 77 30/ 18/ 20 1020.2 BEAUFORT LAB NOT AVBL 30 SE NEW RVR IN 0508 79 81 60/ 17/ 23 1021.2 30 SE NEW RVR IN 0525 81 N/A 5/ 6 2/11 27 SE WRIGHTSVLE 0500 75 82 60/ 16/ 19 N/A 5 SE WRIGHTSVLE 0508 79 82 60/ 16/ 19 1020.8 225 S CAPE HAT 0550 82 84 200/ 10/ 14 1019.5 4/11 3/11 41 SE CHARLESTON 0550 81 84 40/ 17/ 21 1019.0 6/ 6 $$

USA.gov is the U.S. government's official web portal to all federal, state and local government web resources and services.